EA3GKP-10 Weather Reports


Display with metric or nautical units.
time (UTC)temp
F
wind
direction
speed
MPH
gust
MPH
rain 1hr
in
rain 24hr
in
rain mn
in
humidity
%
barometer
mb
20260902200649 73 285 7.0 8.0 0.00 0.00 0.00
20260902184556 76 224 6.0 10.0 0.00 0.00 0.00
20260902183549 78 305 10.0 10.0 0.00 0.00 0.00
20260902182037 79 321 10.0 6.0 0.00 0.00 0.00
20260902181533 80 283 7.0 8.0 0.00 0.00 0.00
20260902180528 80 291 9.0 9.0 0.00 0.00 0.00
20260902174513 82 288 4.0 3.0 0.00 0.00 0.00
20260902174011 81 291 6.0 7.0 0.00 0.00 0.00
20260902173504 81 32 5.0 3.0 0.00 0.00 0.00
20260902172457 82 278 5.0 9.0 0.00 0.00 0.00
20260902171957 81 323 5.0 3.0 0.00 0.00 0.00
20260902171449 82 300 9.0 6.0 0.00 0.00 0.00
20260902170944 82 346 3.0 9.0 0.00 0.00 0.00
20260902170439 82 298 10.0 8.0 0.00 0.00 0.00
20260902165936 82 233 8.0 8.0 0.00 0.00 0.00
20260902165431 82 315 7.0 4.0 0.00 0.00 0.00
20260902164925 83 349 7.0 3.0 0.00 0.00 0.00
20260902163414 84 253 5.0 1.0 0.00 0.00 0.00
20260902162914 82 330 4.0 6.0 0.00 0.00 0.00
20260902162407 81 356 9.0 6.0 0.00 0.00 0.00
20260902161909 82 325 5.0 8.0 0.00 0.00 0.00
20260902161356 82 281 8.0 7.0 0.00 0.00 0.00
20260902160345 82 300 9.0 6.0 0.00 0.00 0.00
20260902155842 81 245 8.0 13.0 0.00 0.00 0.00
20260902155337 82 271 8.0 9.0 0.00 0.00 0.00
20260902154330 81 242 9.0 13.0 0.00 0.00 0.00
20260902153828 82 239 7.0 15.0 0.00 0.00 0.00
20260902152313 83 298 5.0 7.0 0.00 0.00 0.00
20260902151810 83 256 6.0 20.0 0.00 0.00 0.00
20260902145753 83 240 8.0 5.0 0.00 0.00 0.00
20260902145249 82 266 7.0 6.0 0.00 0.00 0.00
20260902144744 82 280 8.0 9.0 0.00 0.00 0.00
20260902141220 84 271 9.0 13.0 0.00 0.00 0.00
20260902140213 85 103 4.0 2.0 0.00 0.00 0.00
20260902134907 83 308 6.0 6.0 0.00 0.00 0.00
20260902134702 83 308 6.0 6.0 0.00 0.00 0.00
20260902134200 83 269 9.0 8.0 0.00 0.00 0.00
20260902133154 82 319 4.0 3.0 0.00 0.00 0.00
20260902132646 82 285 10.0 7.0 0.00 0.00 0.00
20260902132142 84 281 7.0 9.0 0.00 0.00 0.00
20260902131639 84 311 3.0 8.0 0.00 0.00 0.00
20260902130128 83 93 3.0 1.0 0.00 0.00 0.00
20260902124018 84 1 5.0 3.0 0.00 0.00 0.00
20260902123611 84 1 5.0 3.0 0.00 0.00 0.00
20260902123109 85 190 3.0 4.0 0.00 0.00 0.00
20260902122605 84 242 3.0 4.0 0.00 0.00 0.00
20260902122059 85 70 4.0 3.0 0.00 0.00 0.00
20260902121050 83 349 6.0 2.0 0.00 0.00 0.00
20260902120545 84 11 3.0 4.0 0.00 0.00 0.00
20260902115035 84 266 2.0 7.0 0.00 0.00 0.00
20260902114026 82 39 3.0 3.0 0.00 0.00 0.00
20260902113521 82 321 4.0 6.0 0.00 0.00 0.00
20260902112513 81 276 4.0 5.0 0.00 0.00 0.00
20260902112008 83 305 2.0 4.0 0.00 0.00 0.00
20260902111504 82 23 4.0 3.0 0.00 0.00 0.00
20260902110456 82 28 3.0 7.0 0.00 0.00 0.00
20260902105949 81 273 4.0 1.0 0.00 0.00 0.00
20260902101415 82 60 2.0 2.0 0.00 0.00 0.00
20260902100408 80 31 7.0 6.0 0.00 0.00 0.00
20260902092337 78 86 5.0 4.0 0.00 0.00 0.00
20260902085425 78 340 4.0 6.0 0.00 0.00 0.00
20260902085315 78 340 4.0 6.0 0.00 0.00 0.00
20260902080745 76 6 5.0 1.0 0.00 0.00 0.00
20260902073721 75 23 5.0 2.0 0.00 0.00 0.00
20260902063630 72 311 0.0 0.0 0.00 0.00 0.00
20260902055558 72 359 0.0 0.0 0.00 0.00 0.00
20260902055054 73 359 0.0 0.0 0.00 0.00 0.00
20260902054551 73 304 0.0 0.0 0.00 0.00 0.00
20260902052533 72 252 2.0 0.0 0.00 0.00 0.00
20260902050513 73 325 0.0 0.0 0.00 0.00 0.00
20260902045006 73 325 0.0 0.0 0.00 0.00 0.00
20260902044458 73 325 0.0 0.0 0.00 0.00 0.00
20260902043452 72 325 0.0 0.0 0.00 0.00 0.00
20260902042447 73 325 0.0 0.0 0.00 0.00 0.00
20260902041945 73 325 0.0 0.0 0.00 0.00 0.00
20260902034920 72 319 0.0 0.0 0.00 0.00 0.00
20260902034414 73 319 0.0 0.0 0.00 0.00 0.00
20260902033406 73 319 0.0 0.0 0.00 0.00 0.00
20260902022812 73 304 5.0 3.0 0.00 0.00 0.00
20260902022306 73 333 3.0 1.0 0.00 0.00 0.00
20260902003642 74 270 0.0 0.0 0.00 0.00 0.00
20260902003139 75 270 0.0 0.0 0.00 0.00 0.00
20260902002133 74 270 0.0 0.0 0.00 0.00 0.00
20260902001121 74 270 0.0 0.0 0.00 0.00 0.00
20260902000618 74 270 0.0 0.0 0.00 0.00 0.00
20260901233555 73 270 0.0 0.0 0.00 0.00 0.00
20260901224521 74 318 0.0 0.0 0.00 0.00 0.00
20260901223515 74 318 0.0 0.0 0.00 0.00 0.00
20260901222004 75 318 0.0 0.0 0.00 0.00 0.00
20260901204355 75 255 3.0 0.0 0.00 0.00 0.00